Tracking 19572 objects as of 24-Feb-2019
HD Live streaming from Space Station
objects crossing your sky now

ESSA 4 (TOS-B)

Track ESSA 4 (TOS-B) now!
10-day predictions
ESSA 4 (TOS-B) is classified as:


NORAD ID: 2657
Int'l Code: 1967-006A
Perigee: 1,332.6 km
Apogee: 1,446.8 km
Inclination: 102.0 °
Period: 113.4 minutes
Semi major axis: 7760 km
RCS: 0.8222 m2 (medium)
Launch date: January 26, 1967
Source: United States (US)
Launch site: AIR FORCE WESTERN TEST RANGE (AFWTR)
aabbcc
Your satellite tracking list
Your tracking list is empty




NASA's NSSDC Master Catalog

Two Line Element Set (TLE):
1  2657U 67006A   19054.14278016 -.00000057  00000-0 -42642-4 0  9993
2  2657 102.0219 104.5733 0073531 131.0783 296.5822 12.69844876413942
Source of the keplerian elements: AFSPC